Overview Statistics Trail Chart Weather Telemetry Raw packets
 

This is the latest recevied weather packets stored in our database for station/object F5TND-14. If no packets are shown the sender has not sent any weather packets the latest 10 day(s).

<< 43 44 45 46 47 48 49 >>
Time Temp. Humidity Pressure Rain* Wind** Luminosity Snow
1787902394 22.78° C 58% 1013.7 hPa - - - -
1787901793 22.78° C 58% 1013.6 hPa - - - -
1787901194 22.22° C 59% 1013.4 hPa - - - -
1787900593 22.78° C 58% 1013.3 hPa - - - -
1787899993 22.78° C 59% 1013.2 hPa - - - -
1787899393 22.78° C 58% 1013.2 hPa - - - -
1787898793 22.78° C 58% 1013.1 hPa - - - -
1787898193 22.22° C 59% 1013.2 hPa - - - -
1787897593 22.78° C 58% 1013.1 hPa - - - -
1787896993 22.22° C 61% 1013 hPa - - - -
1787896396 21.67° C 61% 1012.9 hPa - - - -
1787895782 22.22° C 59% 1012.9 hPa - - - -
1787895182 22.78° C 59% 1012.7 hPa - - - -
1787894581 22.22° C 60% 1012.8 hPa - - - -
1787893981 21.67° C 61% 1012.6 hPa - - - -
1787893381 22.78° C 59% 1012.7 hPa - - - -
1787892781 22.22° C 60% 1012.7 hPa - - - -
1787892181 22.78° C 60% 1012.6 hPa - - - -
1787891581 22.78° C 59% 1012.4 hPa - - - -
1787890981 22.78° C 60% 1012.8 hPa - - - -
1787890381 22.78° C 60% 1013 hPa - - - -
1787889781 22.78° C 60% 1012.8 hPa - - - -
1787889181 22.78° C 60% 1013 hPa - - - -
1787888581 22.78° C 60% 1012.7 hPa - - - -
1787887981 22.78° C 59% 1012.7 hPa - - - -

* Rain since midnight (hover to see other rain measurements)
** Current wind speed in m/s (hover to see current wind gust speed)